Dewpoint
46 50 49 50 53 62 61 60 54 52 50 48 46 45 43 43 44 45 45 45 45 44 42 41 40 39 38 39 38 41 43 44 46 45 44 43 43 43 39 38 38 39 45
39 47 53 54 59 61 61 60 56 53 51 49 46 45 45 45 45 46 45 45 45 44 42 41 40 39 38 39 39 41 40 43 46 44 44 39 39 42 40 36 37 37 38
27 41 53 56 60 61 61 60 58 54 53 52 49 47 47 46 46 46 45 45 44 45 43 42 41 39 39 39 39 39 40 42 41 45 42 40 36 40 40 35 36 36 38
25 27 52 57 60 60 61 61 60 55 53 52 50 47 45 44 45 45 45 44 44 44 43 42 41 39 39 38 39 39 39 40 40 39 39 38 40 36 37 37 34 36 37
25 25 41 55 59 60 60 61 60 58 54 52 50 48 47 46 46 46 45 44 44 44 44 42 41 39 39 38 39 39 38 38 39 36 37 34 35 36 36 34 32 34 36
23 24 25 55 58 60 60 61 60 58 55 53 52 50 48 47 46 45 44 44 44 44 44 43 41 40 40 39 39 38 38 37 38 37 36 34 33 33 34 34 32 33 35
29 31 25 34 58 60 60 60 60 59 55 54 53 52 51 48 46 45 44 44 43 44 44 43 42 41 40 39 39 38 39 38 37 37 37 37 36 37 36 35 34 34 35
28 30 38 40 54 59 59 59 60 60 56 54 54 53 52 51 48 46 45 44 43 43 44 43 42 42 40 40 40 39 40 39 39 38 39 38 39 39 37 35 35 34 35
30 31 33 34 47 57 58 58 59 60 57 55 55 54 53 52 50 48 47 45 44 43 44 43 42 42 41 41 41 41 40 40 40 39 39 38 38 38 38 37 36 35 34
31 31 32 34 38 40 45 56 58 59 58 56 55 54 54 52 51 50 48 46 45 44 44 44 43 42 42 42 42 42 40 40 40 39 37 37 37 37 37 37 37 36 34
31 32 33 35 37 38 39 42 49 57 58 57 56 55 54 53 51 50 49 48 47 46 45 44 43 42 42 43 42 41 40 39 37 36 36 36 36 33 32 31 30 31 32
32 33 34 35 36 37 39 41 44 49 57 57 56 55 54 53 51 50 49 48 47 47 47 46 44 43 43 42 41 40 38 37 36 35 35 32 25 25 25 25 24 24 24
31 32 32 34 36 37 39 40 42 44 51 56 56 55 54 53 51 50 49 48 47 47 47 47 45 44 43 41 40 37 36 35 31 29 27 24 22 22 23 24 24 25 24
30 30 30 31 34 38 40 41 41 44 47 53 54 53 52 52 51 50 48 48 48 48 48 47 45 42 40 38 35 32 29 25 24 23 23 23 23 23 23 24 25 25 23
30 31 31 32 32 35 39 41 41 44 47 50 51 52 51 51 50 49 48 48 48 47 45 42 39 37 35 33 31 29 27 24 24 25 26 27 27 27 26 25 25 24 24
27 30 31 32 33 34 35 39 41 43 46 48 49 49 49 49 48 47 47 46 45 43 41 40 40 40 38 36 33 29 26 27 26 25 29 31 30 29 28 28 27 25 22
25 28 30 31 33 35 35 38 41 43 45 46 46 46 46 46 45 45 44 43 41 41 41 41 40 39 38 39 37 35 34 33 31 29 29 26 29 30 29 30 29 29 30
24 27 29 31 32 34 37 39 41 42 44 44 45 45 44 43 43 43 42 42 41 41 40 40 39 38 39 40 39 36 33 31 28 27 28 28 29 29 28 27 27 26 27
24 27 29 30 33 37 39 40 41 41 42 42 43 43 43 42 42 41 40 40 39 38 38 38 38 38 40 40 37 31 29 28 27 26 27 28 28 29 28 27 26 26 26
26 27 29 32 33 38 40 40 40 39 39 39 39 39 40 40 39 38 38 37 37 36 36 35 36 37 37 36 34 29 27 26 26 27 28 29 28 28 29 27 26 25 24
24 26 28 29 33 39 40 39 39 38 36 35 35 36 36 36 35 35 35 34 34 33 33 33 33 33 33 33 31 27 24 25 27 27 27 27 27 27 28 29 27 26 26
24 25 24 26 31 34 38 38 38 37 35 35 35 35 34 34 33 33 32 32 32 31 31 31 31 33 32 32 30 29 26 28 26 25 27 27 27 27 26 27 27 27 25
24 25 23 24 22 25 31 33 31 35 35 34 33 33 33 33 32 32 32 32 32 31 30 29 29 30 31 31 31 30 28 28 25 25 26 27 26 27 26 26 27 24 23
24 26 24 21 23 26 30 27 29 31 31 31 31 31 31 31 32 32 32 31 30 29 29 28 28 28 28 28 28 28 28 27 26 26 26 26 27 25 27 23 22 22 22
23 26 27 27 28 29 31 32 31 31 30 29 29 30 30 29 29 29 30 30 31 29 28 27 26 24 24 25 26 26 26 25 25 25 25 23 21 20 20 20 20 21 22
21 23 25 26 27 28 29 30 31 30 29 28 28 28 27 27 28 28 28 31 31 31 28 25 23 23 25 26 27 27 26 26 26 24 23 21 20 19 19 19 20 22 22
Wind_Speed
23 24 25 20 13 21 24 18 21 23 25 22 23 21 22 20 17 17 18 19 18 17 18 17 16 15 17 14 16 12 18 12 14 13 11 8 7 6 6 7 9 10 10
17 21 27 17 23 24 27 22 22 24 23 20 17 11 15 10 15 16 19 20 20 20 18 19 18 18 16 16 16 15 10 8 9 10 8 5 3 4 3 4 7 8 9
16 18 24 21 22 24 24 27 24 22 20 16 14 11 8 6 11 16 16 15 19 20 20 20 19 19 17 18 17 17 13 17 6 13 6 5 5 7 1 3 4 7 9
18 18 22 19 21 24 26 28 28 27 23 22 21 21 21 16 11 13 12 16 18 19 20 20 20 20 18 19 18 15 14 15 16 5 2 2 7 6 6 2 3 3 8
21 21 21 24 24 23 23 25 24 20 22 23 24 24 22 18 12 14 15 14 12 14 16 18 20 20 18 19 20 18 17 13 15 8 6 3 3 5 5 8 6 4 3
10 14 9 14 21 19 21 22 23 22 23 24 21 24 24 19 17 20 21 19 19 19 20 18 17 16 18 22 20 20 20 17 14 11 12 10 7 9 6 6 10 10 3
15 8 9 17 19 19 22 20 22 22 23 24 25 23 22 21 21 21 21 19 18 17 21 22 21 18 16 16 16 18 18 18 19 17 14 11 9 9 6 10 9 6 3
12 13 11 4 15 22 20 20 26 24 25 24 26 23 21 18 17 19 18 20 20 19 15 18 19 20 19 18 17 16 15 16 16 17 14 14 10 9 10 11 17 11 2
14 14 13 13 8 11 15 18 19 22 22 23 24 24 22 22 21 19 16 15 14 13 15 16 17 17 18 19 18 16 16 17 13 14 14 14 10 11 10 11 15 15 9
13 11 10 9 7 7 4 7 14 20 25 24 22 23 24 26 22 19 20 18 14 14 17 16 17 17 17 17 18 16 16 18 14 13 15 13 9 11 11 11 10 7 8
6 8 9 8 6 5 4 4 3 9 15 19 22 22 20 21 20 22 22 20 16 17 18 18 18 19 20 18 18 18 19 20 18 16 16 14 12 13 11 9 10 11 6
1 5 7 6 8 9 9 7 5 5 13 17 19 21 21 21 22 23 23 22 21 20 20 20 17 17 17 19 20 23 18 22 21 17 16 16 13 13 11 11 11 10 9
11 12 14 14 12 10 8 9 7 8 9 13 17 18 20 21 22 22 22 23 22 20 17 15 16 12 8 5 6 11 15 15 17 17 17 16 16 14 12 11 12 8 8
17 18 20 19 19 14 13 11 12 9 9 11 14 17 18 20 20 19 19 20 19 20 19 17 14 15 16 14 10 14 15 14 13 14 13 12 13 13 12 10 8 7 8
19 18 19 21 18 18 16 14 12 11 8 12 15 15 15 14 15 16 17 16 21 23 28 32 26 24 22 16 17 14 14 15 17 14 11 12 14 12 11 11 7 8 5
18 18 19 19 20 19 19 19 16 11 7 10 14 12 14 15 16 17 19 20 21 23 24 27 30 28 25 37 29 20 15 16 18 16 14 13 14 11 12 11 9 9 8
22 20 21 22 21 22 19 21 16 9 7 7 8 12 14 15 17 19 22 23 24 25 24 24 25 23 22 32 29 26 22 20 19 16 15 12 12 10 10 10 9 7 7
27 24 21 24 26 26 23 18 8 7 7 8 10 11 14 16 15 18 20 21 22 25 26 24 24 24 21 29 28 23 18 16 16 15 13 12 12 11 11 9 8 5 8
25 21 23 24 26 25 18 6 3 2 4 7 9 11 13 16 18 20 20 19 21 20 22 24 25 22 21 25 27 21 17 17 18 15 15 16 14 13 12 11 9 6 5
22 25 26 23 22 17 4 1 1 4 9 7 8 9 11 14 15 16 17 15 18 21 21 21 20 24 24 25 25 20 16 18 15 12 14 17 13 12 11 10 8 7 3
25 26 24 20 19 12 6 6 7 8 4 5 8 10 10 12 15 16 17 20 20 21 23 25 20 22 23 21 21 17 15 16 15 16 14 11 14 12 10 9 6 4 6
24 23 23 20 16 12 8 7 5 2 7 9 10 11 13 13 14 19 18 20 24 26 23 24 19 15 16 20 20 18 17 18 17 14 11 12 13 10 8 7 3 4 7
22 21 20 19 12 12 7 3 2 4 7 8 9 11 13 13 15 19 20 19 20 23 22 22 21 17 11 12 18 19 19 17 15 13 13 14 12 10 8 7 10 10 8
21 19 17 12 12 13 4 3 5 8 10 9 9 10 14 14 12 12 15 19 21 22 21 21 19 16 13 13 14 15 16 20 16 16 12 10 11 10 13 11 10 8 5
19 18 14 11 9 8 7 6 6 9 10 10 11 11 11 13 14 12 11 12 12 19 22 19 21 22 17 14 14 15 15 14 15 14 9 10 9 11 10 9 6 5 6
16 15 14 10 9 5 5 6 4 8 12 12 11 12 14 15 15 15 14 14 16 17 17 20 19 15 18 22 20 18 18 18 17 9 10 9 10 10 9 7 5 5 5
Wind_Direction
214 219 223 210 203 187 192 188 173 180 168 171 173 177 183 178 180 176 174 170 165 164 163 162 161 160 161 166 156 137 141 135 132 112 100 79 86 106 116 119 115 113 132
234 219 234 194 194 192 191 189 187 184 182 179 180 181 174 188 181 179 180 174 171 169 171 167 171 167 161 165 163 151 141 142 165 145 117 129 87 70 97 117 123 118 120
223 213 224 212 189 191 194 190 188 186 183 170 159 139 129 148 182 190 186 183 175 176 172 176 172 171 165 171 173 164 156 159 180 174 143 145 177 147 67 96 127 128 117
214 212 206 211 194 197 192 193 192 185 183 173 169 173 186 188 208 195 190 186 183 180 177 177 173 172 173 174 177 173 166 159 171 163 158 122 138 159 157 89 119 129 131
207 215 201 204 203 199 195 197 194 185 184 180 182 179 185 190 176 180 190 187 188 184 183 178 176 176 175 177 175 174 174 170 175 159 154 143 128 132 146 160 160 99 95
219 229 230 215 207 198 197 193 190 188 184 179 187 190 194 186 180 182 189 193 186 184 187 183 184 182 180 178 180 180 178 178 176 175 172 171 166 172 157 134 156 150 106
75 94 218 192 200 200 199 197 191 191 189 185 189 193 198 193 193 186 189 192 193 192 193 183 180 183 180 176 170 174 177 175 174 174 175 171 177 154 150 136 145 143 142
66 58 44 75 194 197 203 201 191 193 188 190 195 196 196 194 194 190 195 200 202 194 194 191 183 177 175 174 168 166 164 162 156 158 149 147 149 153 151 149 150 133 144
68 61 50 41 63 187 209 214 215 195 193 196 197 197 194 194 196 194 191 198 198 190 181 193 186 177 170 168 163 160 156 152 149 150 143 132 131 123 130 140 154 151 157
70 56 58 52 50 51 37 235 229 198 189 193 197 199 197 193 193 185 189 192 191 183 177 186 182 171 170 164 157 152 148 144 140 140 134 121 118 107 107 119 125 134 139
49 34 31 28 26 19 41 8 330 241 201 199 200 200 200 198 191 189 187 188 183 182 183 186 181 174 169 165 157 154 149 147 143 140 139 129 125 116 104 98 101 103 102
343 345 351 358 349 347 349 4 338 285 241 221 206 200 194 194 193 194 188 184 185 187 189 186 181 174 174 171 165 157 154 152 146 142 135 133 120 109 110 113 96 93 85
9 12 9 352 331 319 323 330 320 294 271 214 201 201 192 187 195 195 192 185 184 182 179 177 165 149 135 139 135 132 134 132 133 133 138 134 124 122 123 110 107 104 93
24 15 7 0 352 317 306 313 312 293 276 225 194 193 192 193 198 194 189 179 171 156 142 129 111 110 101 88 82 93 97 96 100 104 113 124 121 128 120 105 103 104 107
12 6 356 341 340 341 318 296 292 290 277 223 208 197 189 193 187 178 170 164 160 152 144 135 123 120 113 120 115 112 120 124 111 98 98 101 102 105 99 110 125 116 119
358 350 342 333 329 322 317 304 279 275 266 229 212 190 176 170 165 157 154 150 147 146 145 143 141 147 143 142 137 132 123 115 109 116 103 97 95 100 115 132 131 148 150
342 342 339 328 318 310 301 295 271 269 244 225 193 177 165 160 160 158 154 153 152 149 151 146 144 145 140 144 147 140 139 144 143 144 140 134 134 138 137 139 137 135 159
334 329 332 323 317 307 297 282 265 251 233 208 192 173 161 155 151 153 156 155 155 155 150 144 139 136 147 150 150 149 142 139 140 138 143 140 145 156 146 129 105 104 87
323 316 322 316 312 309 306 255 249 254 236 212 186 172 164 159 158 157 155 151 144 142 140 135 134 135 144 145 149 145 141 137 137 149 149 152 158 151 133 125 138 123 91
327 328 320 317 315 319 321 155 236 278 254 215 176 156 152 154 152 147 144 140 138 132 128 122 125 136 139 151 148 143 141 137 141 142 147 150 144 139 136 139 143 128 132
330 321 317 317 321 320 284 249 240 246 223 142 134 132 133 134 134 130 131 130 127 120 119 114 115 120 129 142 147 142 137 146 148 145 148 148 147 146 142 143 152 155 155
323 319 319 321 329 330 296 281 278 256 154 144 139 136 133 133 135 130 131 131 128 121 122 118 110 116 136 148 151 151 147 153 143 143 146 156 150 148 140 130 142 129 116
319 324 316 317 337 336 322 288 353 99 110 123 132 134 133 137 143 141 139 135 136 132 134 133 131 131 129 138 152 154 150 143 127 138 149 153 154 137 107 110 107 93 99
324 321 331 345 344 348 349 102 105 111 111 112 113 119 127 124 129 135 143 142 140 136 136 135 136 136 141 147 151 145 141 136 132 143 149 150 131 123 114 98 86 90 117
330 331 341 343 342 355 27 51 87 117 116 112 113 117 117 117 112 102 121 130 128 141 140 144 146 147 150 150 144 139 132 131 137 132 130 132 121 117 111 104 114 114 95
340 347 347 337 329 348 30 48 87 126 127 118 112 117 111 106 104 108 105 99 116 132 139 147 143 137 139 147 145 140 139 145 143 138 145 140 136 138 138 137 119 90 78